Flag for U.S.A. Weather past 2 weeks in Carson City, Nevada, U.S.A.

Now
60 °F

Clear.


Feels Like: 60 °F
Forecast: 47 / 81 °F
Wind: 3 mph from South

Location: Reno Tahoe International Airport

Current Time: Sep 22, 2014 at 1:13:10 AM

Latest Report: Sep 21, 2014 at 11:55 PM


Visibility: 7 mi

Pressure: 30.00 "Hg

Humidity: 58%

Dew point: 45 °F

Location of Carson CityLocation

Historic Weather in Carson City — Graph

°F

Carson City temperature yesterday

Maximum temperature yesterday: 75 °F (at 3:55 PM)
Minimum temperature yesterday: 60 °F (at 11:55 PM)
Average temperature yesterday: 68 °F

Past Weeks' High & Low Weather Summary

 TemperatureHumidityPressure
High93 °F (Sep 15, 2:55 PM)62% (Sep 19, 7:55 AM)30.06 "Hg (Sep 19, 7:55 AM)
Low50 °F (Sep 9, 6:55 AM)8% (Sep 7, 2:55 PM)29.65 "Hg (Sep 17, 4:55 PM)
Average72 °F29%29.88 "Hg
* Reported Sep 6 11:55 PM — Sep 21 11:55 PM, Carson City, Weather by CustomWeather, © 2014

Note: Actual official high and low records may vary slightly from our data, if they occured in-between our weather recording intervals... More about our weather records

Advertising

Carson City weather history for previous 24 hours

 ConditionsComfort  
Time TempWeatherWind HumidityBarometerVisibility
11:55 PM
Sep 21
60 °FClear.3 mph58%30.00 "Hg7 mi
10:55 PM62 °FPassing clouds.No wind54%30.00 "Hg7 mi
9:55 PM68 °FPassing clouds.6 mph40%29.99 "Hg7 mi
8:55 PM68 °FPassing clouds.7 mph40%29.98 "Hg7 mi
7:55 PM70 °FScattered clouds.12 mph39%29.96 "Hg7 mi
6:55 PM71 °FBroken clouds.9 mph38%29.94 "Hg6 mi
5:55 PM72 °FBroken clouds.14 mph38%29.93 "Hg6 mi
4:55 PM73 °FBroken clouds.12 mph37%29.92 "Hg6 mi
3:55 PM75 °FBroken clouds.14 mph32%29.92 "Hg5 mi
2:55 PM74 °FPartly sunny.5 mph36%29.93 "Hg7 mi
1:55 PM72 °FMostly cloudy.5 mph37%29.94 "Hg10 mi
12:55 PM71 °FPartly sunny.3 mph41%29.96 "Hg10 mi
11:55 AM70 °FBroken clouds.5 mph44%29.97 "Hg10 mi
10:55 AM68 °FBroken clouds.No wind49%29.98 "Hg10 mi
9:55 AM66 °FBroken clouds.5 mph54%29.98 "Hg10 mi
8:55 AM65 °FPartly sunny.3 mph56%29.97 "Hg10 mi
7:55 AM65 °FCloudy.5 mph54%29.96 "Hg10 mi
6:55 AM65 °FOvercast.No wind47%29.94 "Hg10 mi
5:55 AM66 °FOvercast.3 mph47%29.92 "Hg10 mi
4:55 AM67 °FOvercast.3 mph42%29.91 "Hg10 mi
3:55 AM67 °FMostly cloudy.5 mph41%29.90 "Hg10 mi
2:55 AM68 °FMostly cloudy.8 mph40%29.90 "Hg10 mi
1:55 AM70 °FMostly cloudy.5 mph37%29.91 "Hg10 mi
Weather by CustomWeather, © 2014

See weather overviewHow to use our weather pages